sat.trackr.live / text

‹ back to catalog

ONEWEB-0492

NORAD 54114 · 2022-138B

PAYLOAD ACTIVE UNKNOWN

§ Identity

Operator
Country
UK
Launch date
2022-10-22
Launch site
SRILR
Launch vehicle
Mass (kg)
RCS (m²)

Purposes: comms

External: N2YO · Heavens-Above · Gunter

§ Orbital elements

Epoch: 2026-09-20T00:09:35.678880Z

Period
109.11 min
Inclination
87.9113°
Eccentricity
0.0001717
Mean motion
13.19726568 rev/d
Perigee alt
1,184.5 km
Apogee alt
1,187.1 km
Semi-major
7,563.9 km
B*
9.5626e-5
RAAN
286.0772°
Arg perigee
87.4329°
Mean anomaly
272.7000°
Rev number
18,934

§ Raw data

ONEWEB-04921 54114U 22138B   26263.00666295  .00000051  00000+0  95626-4 0  99912 54114  87.9113 286.0772 0001717  87.4329 272.7000 13.19726568189348

JSON: /api/v1/satellites/54114 · /tle

For live sub-satellite position, see the globe view (requires WebGL).

§ Visibility from observer

Set your observer location to see the next 7 days of passes ≥ 10°. The values pass through the URL so the page stays shareable.

No JS? Fill the form by hand. The geolocation button needs JavaScript.